FW7473 Weather Reports


time (UTC)temp
C
wind
direction
speed
KPH
gust
KPH
rain 1hr
cm
rain 24hr
cm
rain mn
cm
humidity
%
barometer
mb
20260506123500 23 151 0.0 0.0 0.00 0.00 0.00 98 1010.4
20260506122958 23 148 0.0 0.0 0.00 0.00 0.00 98 1010.4
20260506122454 23 146 0.0 0.0 0.00 0.00 0.00 98 1010.3
20260506121953 23 152 0.0 0.0 0.00 0.00 0.00 98 1010.4
20260506121450 23 143 0.0 0.0 0.00 0.00 0.00 98 1010.6
20260506120946 23 149 0.0 0.0 0.00 0.00 0.00 98 1010.4
20260506120444 23 152 0.0 0.0 0.00 0.00 0.00 97 1010.4
20260506115941 23 149 0.0 0.0 0.00 0.00 0.00 97 1010.3
20260506115439 23 154 0.0 0.0 0.00 0.00 0.00 97 1010.4
20260506114937 23 148 0.0 0.0 0.00 0.00 0.00 97 1010.3
20260506114434 23 148 0.0 0.0 0.00 0.00 0.00 97 1010.4
20260506113933 23 148 0.0 0.0 0.00 0.00 0.00 97 1010.4
20260506113430 23 148 0.0 0.0 0.00 0.00 0.00 97 1010.4
20260506112926 23 150 0.0 0.0 0.00 0.00 0.00 97 1010.3
20260506112424 23 151 0.0 0.0 0.00 0.00 0.00 97 1010.4
20260506111921 23 148 0.0 0.0 0.00 0.00 0.00 97 1010.2
20260506111419 23 143 0.0 0.0 0.00 0.00 0.00 97 1010.2
20260506110916 23 148 0.0 0.0 0.00 0.00 0.00 97 1010.2
20260506110414 23 153 0.0 0.0 0.00 0.00 0.00 97 1010.1
20260506105910 23 152 0.0 0.0 0.00 0.00 0.00 97 1010.2
20260506105406 23 141 0.0 0.0 0.00 0.00 0.00 97 1010.2
20260506104904 23 151 0.0 0.0 0.00 0.00 0.00 97 1010.0
20260506104402 23 151 0.0 0.0 0.00 0.00 0.00 97 1009.8
20260506103859 23 166 1.6 1.6 0.00 0.00 0.00 97 1009.8
20260506103357 23 156 4.8 4.8 0.00 0.00 0.00 97 1009.4
20260506102854 23 150 0.0 0.0 0.00 0.00 0.00 97 1009.5
20260506102352 23 151 1.6 1.6 0.00 0.00 0.00 97 1009.8
20260506101848 23 153 0.0 1.6 0.00 0.00 0.00 97 1009.4
20260506101344 23 145 0.0 1.6 0.00 0.00 0.00 97 1009.3
20260506100843 23 152 0.0 0.0 0.00 0.00 0.00 97 1009.4
20260506100341 23 159 1.6 1.6 0.00 0.00 0.00 97 1009.4
20260506095839 23 151 0.0 0.0 0.00 0.00 0.00 97 1009.5
20260506095336 23 158 1.6 1.6 0.00 0.00 0.00 97 1009.3
20260506094832 23 151 1.6 1.6 0.00 0.00 0.00 97 1009.4
20260506094331 23 166 1.6 1.6 0.00 0.00 0.00 97 1009.2
20260506093829 23 165 4.8 4.8 0.00 0.00 0.00 97 1009.1
20260506093326 23 149 0.0 0.0 0.00 0.00 0.00 97 1009.1
20260506092824 23 158 1.6 1.6 0.00 0.00 0.00 97 1009.1
20260506092321 23 156 4.8 8.0 0.00 0.00 0.00 97 1008.8
20260506091818 23 154 1.6 1.6 0.00 0.00 0.00 97 1009.0
20260506091316 23 148 4.8 4.8 0.00 0.00 0.00 97 1008.9
20260506090813 23 155 0.0 0.0 0.00 0.00 0.00 97 1009.0
20260506090310 23 163 1.6 1.6 0.00 0.00 0.00 97 1008.9
20260506085807 23 163 3.2 3.2 0.00 0.00 0.00 97 1008.8
20260506085305 23 151 0.0 0.0 0.00 0.00 0.00 97 1008.9
20260506084800 23 158 0.0 0.0 0.00 0.00 0.00 97 1008.7
20260506084256 23 149 0.0 1.6 0.00 0.00 0.00 96 1008.8
20260506083753 23 179 4.8 4.8 0.00 0.00 0.00 96 1009.1
20260506083251 23 170 3.2 4.8 0.00 0.00 0.00 96 1009.0
20260506082748 23 169 8.0 12.9 0.00 0.00 0.00 96 1008.9
20260506082243 23 156 1.6 1.6 0.00 0.00 0.00 96 1009.1
20260506081741 23 152 3.2 4.8 0.00 0.00 0.00 96 1008.8
20260506081238 23 158 3.2 3.2 0.00 0.00 0.00 96 1008.9
20260506080737 23 200 1.6 1.6 0.00 0.00 0.00 96 1009.1
20260506080233 23 166 6.4 9.7 0.00 0.00 0.00 96 1009.0
20260506073217 23 156 1.6 3.2 0.00 0.00 0.00 96 1009.3
20260506072714 23 159 1.6 1.6 0.00 0.00 0.00 96 1009.7
20260506072211 23 152 0.0 0.0 0.00 0.00 0.00 96 1009.4
20260506071708 23 162 1.6 3.2 0.00 0.00 0.00 96 1009.7
20260506071206 23 165 4.8 8.0 0.00 0.00 0.00 96 1009.4
20260506070703 23 153 0.0 1.6 0.00 0.00 0.00 96 1009.5
20260506070200 23 171 4.8 8.0 0.00 0.00 0.00 95 1009.5
20260506062137 23 165 6.4 9.7 0.00 0.00 0.00 95 1009.7
20260506061633 23 134 3.2 4.8 0.00 0.00 0.00 95 1009.5
20260506061131 23 148 1.6 1.6 0.00 0.00 0.00 95 1009.5
20260506060629 23 183 4.8 9.7 0.00 0.00 0.00 95 1009.5
20260506060126 23 191 3.2 4.8 0.00 0.00 0.00 95 1009.7
20260506051058 24 155 0.0 1.6 0.00 0.00 0.00 94 1009.8
20260506050555 24 165 6.4 8.0 0.00 0.00 0.00 93 1009.9
20260506045046 24 156 1.6 1.6 0.00 0.00 0.00 93 1009.5
20260506044544 24 182 6.4 11.3 0.00 0.00 0.00 93 1009.8
20260506044040 24 149 1.6 3.2 0.00 0.00 0.00 93 1010.0
20260506043537 24 159 4.8 9.7 0.00 0.00 0.00 93 1009.9
20260506043036 24 153 1.6 3.2 0.00 0.00 0.00 93 1009.8
20260506042535 24 180 1.6 3.2 0.00 0.00 0.00 93 1009.7
20260506042032 24 174 4.8 9.7 0.00 0.00 0.00 93 1009.5
20260506041531 24 161 4.8 4.8 0.00 0.00 0.00 93 1009.7
20260506041027 24 148 0.0 0.0 0.00 0.00 0.00 93 1009.7
20260506040525 24 149 3.2 3.2 0.00 0.00 0.00 93 1009.4
20260506040021 24 123 0.0 0.0 0.00 0.00 0.00 93 1009.4
20260506035518 24 153 1.6 3.2 0.00 0.00 0.00 93 1009.4
20260506035014 24 155 1.6 1.6 0.00 0.00 0.00 93 1009.3
20260506034512 25 169 1.6 3.2 0.00 0.00 0.00 93 1009.1
20260506034009 25 149 1.6 1.6 0.00 0.00 0.00 93 1009.3
20260506033506 25 161 1.6 1.6 0.00 0.00 0.00 93 1008.9
20260506033004 25 170 6.4 9.7 0.00 0.00 0.00 93 1009.0
20260506032501 25 167 3.2 3.2 0.00 0.00 0.00 92 1008.8
20260506031956 25 148 1.6 1.6 0.00 0.00 0.00 92 1008.9
20260506031455 25 147 0.0 0.0 0.00 0.00 0.00 92 1008.9
20260506030952 25 147 3.2 4.8 0.00 0.00 0.00 92 1008.8
20260506030450 25 155 0.0 0.0 0.00 0.00 0.00 92 1008.7
20260506025946 25 157 0.0 0.0 0.00 0.00 0.00 92 1008.8
20260506025443 25 162 4.8 8.0 0.00 0.00 0.00 92 1008.6
20260506024940 25 158 0.0 0.0 0.00 0.00 0.00 91 1008.4
20260506024437 25 180 1.6 8.0 0.00 0.00 0.00 91 1008.5
20260506023932 25 159 1.6 3.2 0.00 0.00 0.00 90 1008.3
20260506023429 25 146 0.0 0.0 0.00 0.00 0.00 90 1008.2
20260506022926 25 153 0.0 0.0 0.00 0.00 0.00 90 1008.1
20260506022424 25 158 0.0 0.0 0.00 0.00 0.00 89 1008.1
20260506021922 25 156 1.6 3.2 0.00 0.00 0.00 89 1007.9
20260506021419 25 163 0.0 0.0 0.00 0.00 0.00 89 1007.8
20260506020915 25 169 1.6 3.2 0.00 0.00 0.00 89 1007.8
20260506020414 25 152 1.6 3.2 0.00 0.00 0.00 88 1007.9
20260506015910 25 146 0.0 0.0 0.00 0.00 0.00 88 1007.7
20260506015408 25 165 1.6 3.2 0.00 0.00 0.00 88 1007.8
20260506014904 25 153 0.0 0.0 0.00 0.00 0.00 87 1007.6
20260506014401 25 156 0.0 0.0 0.00 0.00 0.00 87 1007.5
20260506013858 26 154 0.0 0.0 0.00 0.00 0.00 87 1007.6
20260506013356 26 152 0.0 0.0 0.00 0.00 0.00 86 1007.4
20260506012852 26 148 0.0 0.0 0.00 0.00 0.00 86 1007.5
20260506012349 26 152 0.0 0.0 0.00 0.00 0.00 86 1007.5
20260506011846 26 157 0.0 0.0 0.00 0.00 0.00 85 1007.4
20260506011343 26 151 0.0 0.0 0.00 0.00 0.00 85 1007.5
20260506010840 26 155 0.0 0.0 0.00 0.00 0.00 84 1007.8
20260506010338 26 149 0.0 0.0 0.00 0.00 0.00 84 1007.7
20260506005835 27 146 0.0 0.0 0.00 0.00 0.00 83 1007.5
20260506005331 27 158 0.0 0.0 0.00 0.00 0.00 83 1007.5
20260506004827 27 158 0.0 0.0 0.00 0.00 0.00 83 1007.4
20260506004325 27 158 0.0 0.0 0.00 0.00 0.00 82 1007.4
20260506003821 27 150 0.0 0.0 0.00 0.00 0.00 82 1007.3
20260506003318 27 152 0.0 0.0 0.00 0.00 0.00 81 1007.2
20260506002814 27 148 0.0 0.0 0.00 0.00 0.00 81 1007.4
20260506002311 27 156 0.0 0.0 0.00 0.00 0.00 80 1007.3
20260506001806 27 159 1.6 4.8 0.00 0.00 0.00 80 1007.3
20260506001304 27 152 0.0 0.0 0.00 0.00 0.00 80 1007.0
20260506000800 27 145 0.0 0.0 0.00 0.00 0.00 80 1007.3
20260506000258 27 164 3.2 8.0 0.00 0.00 0.00 80 1007.3
20260505235755 27 141 0.0 0.0 0.00 0.00 0.00 80 1007.4
20260505235253 28 154 0.0 0.0 0.00 0.00 0.00 79 1007.0
20260505234749 28 172 4.8 4.8 0.00 0.00 0.00 79 1007.0
20260505234247 28 172 1.6 8.0 0.00 0.00 0.00 78 1007.1
20260505233743 28 160 3.2 4.8 0.00 0.00 0.00 78 1007.1
20260505233241 28 153 0.0 0.0 0.00 0.00 0.00 78 1007.1
20260505232738 28 152 0.0 0.0 0.00 0.00 0.00 78 1007.1
20260505232236 28 153 0.0 0.0 0.00 0.00 0.00 78 1007.0
20260505231732 28 192 4.8 8.0 0.00 0.00 0.00 78 1007.0
20260505231231 28 151 1.6 3.2 0.00 0.00 0.00 77 1007.0
20260505230729 28 158 0.0 0.0 0.00 0.00 0.00 78 1007.1
20260505230225 28 146 0.0 0.0 0.00 0.00 0.00 77 1007.0
20260505225722 28 153 0.0 0.0 0.00 0.00 0.00 77 1006.8
20260505225219 28 146 0.0 0.0 0.00 0.00 0.00 78 1006.8
20260505224714 28 170 0.0 1.6 0.00 0.00 0.00 77 1006.9
20260505224212 28 159 0.0 0.0 0.00 0.00 0.00 77 1006.7
20260505223710 28 150 3.2 4.8 0.00 0.00 0.00 76 1006.9
20260505223205 28 144 3.2 3.2 0.00 0.00 0.00 76 1006.9
20260505222702 28 160 3.2 3.2 0.00 0.00 0.00 76 1006.7
20260505222158 28 151 1.6 3.2 0.00 0.00 0.00 75 1007.1
20260505221655 28 172 1.6 1.6 0.00 0.00 0.00 74 1006.9
20260505221152 28 168 0.0 0.0 0.00 0.00 0.00 76 1006.8
20260505220649 29 155 4.8 4.8 0.00 0.00 0.00 74 1006.9
20260505220147 29 149 8.0 9.7 0.00 0.00 0.00 73 1007.0
20260505215644 28 136 0.0 1.6 0.00 0.00 0.00 75 1007.1
20260505215142 28 182 4.8 8.0 0.00 0.00 0.00 75 1007.0
20260505214640 28 176 8.0 11.3 0.00 0.00 0.00 75 1007.2
20260505214136 29 154 0.0 0.0 0.00 0.00 0.00 75 1007.3
20260505213634 29 152 3.2 3.2 0.00 0.00 0.00 73 1007.3
20260505213131 29 157 0.0 0.0 0.00 0.00 0.00 73 1007.3
20260505212626 29 191 6.4 9.7 0.00 0.00 0.00 73 1007.5
20260505212125 29 187 8.0 20.9 0.00 0.00 0.00 73 1007.7
20260505211621 28 142 4.8 8.0 0.00 0.00 0.00 74 1007.3
20260505211118 28 149 3.2 3.2 0.00 0.00 0.00 75 1007.7
20260505210615 29 131 4.8 9.7 0.00 0.00 0.00 73 1007.6
20260505210112 29 167 4.8 4.8 0.00 0.00 0.00 73 1007.6
20260505205609 28 183 6.4 9.7 0.00 0.00 0.00 74 1007.8
20260505205107 28 159 4.8 8.0 0.00 0.00 0.00 74 1007.9
20260505204604 29 215 9.7 14.5 0.00 0.00 0.00 73 1008.1
20260505204101 29 151 3.2 4.8 0.00 0.00 0.00 73 1007.9
20260505203558 28 148 1.6 3.2 0.00 0.00 0.00 75 1008.1
20260505203055 28 157 4.8 8.0 0.00 0.00 0.00 75 1008.1
20260505202551 28 211 6.4 8.0 0.00 0.00 0.00 74 1008.2
20260505202047 28 153 0.0 0.0 0.00 0.00 0.00 75 1008.4
20260505201544 28 150 0.0 0.0 0.00 0.00 0.00 76 1008.5
20260505201042 28 160 4.8 9.7 0.00 0.00 0.00 75 1008.4
20260505200539 28 163 1.6 1.6 0.00 0.00 0.00 78 1008.3
20260505200036 27 141 0.0 1.6 0.00 0.00 0.00 79 1008.5
20260505195532 27 157 3.2 8.0 0.00 0.00 0.00 79 1008.6
20260505195030 27 147 1.6 3.2 0.00 0.00 0.00 79 1008.8
20260505194527 27 155 3.2 3.2 0.00 0.00 0.00 79 1008.6
20260505194022 28 195 1.6 3.2 0.00 0.00 0.00 77 1008.8
20260505193520 28 201 8.0 11.3 0.00 0.00 0.00 76 1008.8
20260505193017 28 151 1.6 3.2 0.00 0.00 0.00 78 1008.7
20260505192515 28 160 0.0 1.6 0.00 0.00 0.00 78 1009.1
20260505192012 27 133 3.2 4.8 0.00 0.00 0.00 78 1008.7
20260505191510 28 191 8.0 12.9 0.00 0.00 0.00 77 1009.1
20260505191009 27 151 3.2 3.2 0.00 0.00 0.00 78 1009.0
20260505190503 27 185 4.8 4.8 0.00 0.00 0.00 78 1009.0
20260505185958 27 213 3.2 3.2 0.00 0.00 0.00 78 1009.2
20260505185456 27 182 4.8 8.0 0.00 0.00 0.00 78 1009.1
20260505184952 27 156 3.2 4.8 0.00 0.00 0.00 79 1009.1
20260505184449 27 160 1.6 1.6 0.00 0.00 0.00 80 1009.2
20260505183945 27 163 3.2 3.2 0.00 0.00 0.00 80 1009.2
20260505183442 27 154 4.8 8.0 0.00 0.00 0.00 79 1009.1
20260505182939 27 177 3.2 4.8 0.00 0.00 0.00 80 1009.5
20260505182436 27 191 4.8 4.8 0.00 0.00 0.00 81 1009.4
20260505181932 26 145 0.0 0.0 0.00 0.00 0.00 84 1009.4
20260505181430 26 159 3.2 3.2 0.00 0.00 0.00 83 1009.3
20260505180926 26 153 1.6 3.2 0.00 0.00 0.00 83 1009.5
20260505180423 26 156 1.6 3.2 0.00 0.00 0.00 84 1009.9
20260505175920 26 183 0.0 0.0 0.00 0.00 0.00 83 1009.7
20260505175416 26 154 0.0 0.0 0.00 0.00 0.00 83 1009.8
20260505174912 25 164 3.2 8.0 0.00 0.00 0.00 84 1009.9
20260505174410 25 167 0.0 0.0 0.00 0.00 0.00 85 1009.8
20260505173906 25 159 3.2 3.2 0.00 0.00 0.00 87 1009.9
20260505173402 24 161 1.6 1.6 0.00 0.00 0.00 87 1010.1
20260505172859 24 163 4.8 8.0 0.00 0.00 0.00 88 1010.2
20260505172357 24 160 0.0 1.6 0.00 0.00 0.00 89 1010.3
20260505171857 24 151 3.2 3.2 0.00 0.00 0.00 89 1010.1
20260505171354 23 154 4.8 4.8 0.00 0.00 0.00 89 1010.0
20260505170850 23 153 1.6 1.6 0.00 0.00 0.00 89 1010.1
20260505170348 23 167 1.6 3.2 0.00 0.00 0.00 90 1010.1
20260505165842 23 147 0.0 1.6 0.00 0.00 0.00 91 1010.4
20260505165338 23 175 3.2 4.8 0.00 0.00 0.00 90 1010.3
20260505164834 23 154 3.2 3.2 0.00 0.00 0.00 90 1010.2
20260505164331 23 153 1.6 1.6 0.00 0.00 0.00 90 1010.1
20260505163829 23 157 4.8 4.8 0.00 0.00 0.00 90 1010.1
20260505163328 23 166 3.2 3.2 0.00 0.00 0.00 91 1010.1
20260505162826 23 162 3.2 3.2 0.00 0.00 0.00 91 1010.4
20260505162322 22 161 3.2 4.8 0.00 0.00 0.00 91 1010.2
20260505161819 22 151 0.0 0.0 0.00 0.00 0.00 92 1010.5
20260505161316 22 168 0.0 0.0 0.00 0.00 0.00 92 1010.2
20260505160813 22 169 3.2 8.0 0.00 0.00 0.00 93 1010.2
20260505160311 22 161 3.2 3.2 0.00 0.00 0.00 93 1010.5
20260505153250 21 152 1.6 1.6 0.00 0.00 0.00 95 1010.3
20260505152747 21 152 1.6 1.6 0.00 0.00 0.00 95 1010.1
20260505152244 21 155 1.6 3.2 0.00 0.00 0.00 96 1010.2
20260505151738 21 182 3.2 4.8 0.00 0.00 0.00 96 1010.1
20260505151236 21 148 0.0 0.0 0.00 0.00 0.00 96 1009.9
20260505150732 21 191 6.4 12.9 0.00 0.00 0.00 96 1009.9
20260505150229 21 150 1.6 1.6 0.00 0.00 0.00 96 1010.1
20260505140154 21 156 4.8 8.0 0.00 0.00 0.00 97 1009.8
20260505130118 21 156 0.0 1.6 0.00 0.00 0.00 97 1009.0
20260505124607 21 170 4.8 4.8 0.00 0.00 0.00 97 1008.8
20260505124103 21 149 3.2 8.0 0.00 0.00 0.00 97 1008.9